This is the latest recevied weather packets stored in our database for station/object K5MGY. If no packets are shown the sender has not sent any weather packets the latest 10 day(s).
| Time | Temp. | Humidity | Pressure | Rain* | Wind** | Luminosity | Snow |
|---|---|---|---|---|---|---|---|
| 1778119275 | 15.56° C | 82% | 1039.9 hPa | 0 mm | - | 0 W/m² | - |
| 1778118974 | 15.56° C | 82% | 1039.8 hPa | 0 mm | - | 0 W/m² | - |
| 1778118671 | 15.56° C | 82% | 1039.4 hPa | 0 mm | - | 0 W/m² | - |
| 1778118367 | 15.56° C | 82% | 1039.6 hPa | 0 mm | - | 0 W/m² | - |
| 1778118063 | 15.56° C | 82% | 1039.6 hPa | 0 mm | - | 0 W/m² | - |
| 1778117760 | 15.56° C | 82% | 1039.4 hPa | 0 mm | - | 0 W/m² | - |
| 1778117457 | 15.56° C | 82% | 1039.2 hPa | 0 mm | - | 0 W/m² | - |
| 1778117154 | 15.56° C | 82% | 1039 hPa | 0 mm | - | 0 W/m² | - |
| 1778116850 | 15.56° C | 82% | 1039.1 hPa | 0 mm | - | 0 W/m² | - |
| 1778116548 | 15.56° C | 83% | 1038.8 hPa | 0 mm | - | 1 W/m² | - |
| 1778116244 | 15.56° C | 82% | 1038.8 hPa | 0 mm | - | 1 W/m² | - |
| 1778115938 | 15.56° C | 83% | 1038.8 hPa | 0 mm | - | 2 W/m² | - |
| 1778115635 | 15.56° C | 82% | 1038.8 hPa | 0 mm | - | 2 W/m² | - |
| 1778115333 | 15.56° C | 83% | 1038.7 hPa | 0 mm | - | 4 W/m² | - |
| 1778115029 | 15.56° C | 83% | 1038.8 hPa | 0 mm | - | 5 W/m² | - |
| 1778114726 | 15.56° C | 82% | 1038.4 hPa | 0 mm | - | 8 W/m² | - |
| 1778114423 | 15.56° C | 83% | 1038.6 hPa | 0 mm | - | 10 W/m² | - |
| 1778114119 | 15.56° C | 83% | 1038.7 hPa | 0 mm | - | 12 W/m² | - |
| 1778113814 | 15.56° C | 82% | 1038.5 hPa | 0 mm | - | 16 W/m² | - |
| 1778113511 | 15.56° C | 83% | 1038.5 hPa | 0 mm | - | 16 W/m² | - |
| 1778113207 | 15.56° C | 82% | 1038.5 hPa | 0 mm | - | 20 W/m² | - |
| 1778112903 | 15.56° C | 82% | 1038.5 hPa | 0 mm | - | 21 W/m² | - |
| 1778112601 | 15.56° C | 82% | 1038.3 hPa | 0 mm | - | 24 W/m² | - |
| 1778112297 | 15.56° C | 83% | 1038.3 hPa | 0 mm | - | 24 W/m² | - |
| 1778111992 | 15.56° C | 83% | 1038.3 hPa | 0 mm | - | 33 W/m² | - |
* Rain latest hour (hover to see other rain measurements)
** Current wind speed in m/s (hover to see current wind gust speed)